Regional Weather Roundup
Issued by NWS Mt. Holly, NJ

Home | Current Version | Previous Version | Text Only | Print | Product List | Glossary On
Versions: 1 2 3 4 5 6 7 8 9 10 11 12 13 14 15 16 17 18 19 20 21 22 23 24 25 26 27 28 29 30 31 32 33 34 35 36 37 38 39 40 41 42 43 44 45 46 47 48 49 50
000
ASUS41 KPHI 220010
RWRPHI

REGIONAL WEATHER ROUNDUP
NATIONAL WEATHER SERVICE MOUNT HOLLY NJ
700 PM EST FRI NOV 21 2014

NOTE:  "FAIR" INDICATES FEW OR NO CLOUDS BELOW 12,000 FEET WITH NO
SIGNIFICANT WEATHER AND/OR OBSTRUCTIONS TO VISIBILITY.

 * = STATION DOES NOT REPORT PRECIPITATION (E.G. RAIN, SNOW, ETC.)
        OR FOG.

NJZ015>026-220100-
SOUTHERN NEW JERSEY

CITY           SKY/WX    TMP DP  RH WIND       PRES   REMARKS
POMONA         CLEAR     29  10  45 SW3       30.51R
6HR MIN TEMP:  29; 6HR MAX TEMP:  37;

RIO GRANDE*    CLEAR     34  10  37 N7        30.51R WCI  28
MILLVILLE      CLEAR     25  13  60 CALM      30.52R
WRIGHTSTOWN    CLEAR     29   8  41 W7        30.47R WCI  22
MOUNT HOLLY    CLEAR     31   8  38 W3        30.51R
TRENTON        CLEAR     30   8  39 W5        30.48R WCI  25
6HR MIN TEMP:  30; 6HR MAX TEMP:  36;


$$
NJZ001>014-220100-
NORTHERN NEW JERSEY

CITY           SKY/WX    TMP DP  RH WIND       PRES   REMARKS
SUSSEX         CLEAR     25  10  53 CALM      30.45R
ANDOVER*         N/A     27   8  44 CALM      30.45R
MORRISTOWN     CLEAR     30  10  43 CALM      30.48R
NEWARK         CLEAR     33   7  33 NW8       30.48R WCI  26
TETERBORO      CLEAR     32   9  38 NW8       30.47R WCI  25
CALDWELL       CLEAR     28   8  43 CALM      30.48R
SOMERVILLE     CLEAR     27   9  46 CALM      30.47R
ALLAIRE*       CLEAR     30   7  37 W8        30.47R WCI  23
TOMS RIVER*    CLEAR     27   9  46 CALM      30.50R

$$
PAZ043-044-047-054-055-060>062-066>071-220100-
EASTERN PENNSYLVANIA

CITY           SKY/WX    TMP DP  RH WIND       PRES   REMARKS
PHILADELPHIA   CLEAR     34   8  33 W9        30.52R WCI  27
6HR MIN TEMP:  33; 6HR MAX TEMP:  37;

NORTH PHILA    CLEAR     30   7  37 W7        30.52R WCI  23
BLUE BELL      CLEAR     32  14  47 CALM      30.49R
DOYLESTOWN     CLEAR     28   9  44 SW3       30.47R
QUAKERTOWN*    CLEAR     28   9  43 W3        30.48R
POTTSTOWN      CLEAR     28   9  44 CALM      30.50R
LANCASTER      CLEAR     25  10  53 W6        30.50R WCI  18
COATESVILLE    CLEAR     27  10  50 W7        30.49R WCI  19
READING        CLEAR     29  10  45 W8        30.48R WCI  21
6HR MIN TEMP:  29; 6HR MAX TEMP:  36;

ALLENTOWN      CLEAR     28   8  43 CALM      30.47R
6HR MIN TEMP:  26; 6HR MAX TEMP:  35;

MOUNT POCONO   CLEAR     20   7  57 NW6       30.36R WCI  12
6HR MIN TEMP:  20; 6HR MAX TEMP:  28;

HAZLETON       CLEAR     25   9  50 W3        30.41S
WILKES BARRE   CLEAR     26   8  46 W10       30.42R WCI  16

$$
DEZALL-MDZ008-012-015-019-020-220100-
DELAWARE AND EASTERN MARYLAND

CITY           SKY/WX    TMP DP  RH WIND       PRES   REMARKS
WILMINGTON     CLEAR     30  10  43 W7        30.53R WCI  23
6HR MIN TEMP:  29; 6HR MAX TEMP:  37;

DOVER          CLEAR     27  12  52 N2        30.50R
GEORGETOWN     CLEAR     31  10  41 CALM      30.54R
6HR MIN TEMP:  30; 6HR MAX TEMP:  37;

EASTON         CLEAR     32  12  43 CALM      30.58R
PATUXENT       CLEAR     28  10  46 NW3       30.55R
OCEAN CITY     CLEAR     27  10  49 CALM      30.55R
WALLOPS ISLAND CLEAR     29  11  47 N5        30.55R WCI  24
CAMBRIDGE      CLEAR     32  12  43 CALM      30.54R
SALISBURY      CLEAR     29  14  53 SW3       30.54R

$$
PAZ001-021-NYZ056-072-MDZ011-DCZ001-220100-
OTHER NEARBY LOCATIONS

CITY           SKY/WX    TMP DP  RH WIND       PRES   REMARKS
HARRISBURG     CLEAR     27   9  46 NW7       30.51R WCI  19
STATE COLLEGE  CLEAR     21   9  58 W7        30.46S WCI  13
WILLIAMSPORT   CLEAR     28   9  44 W8        30.47R WCI  20
BINGHAMTON     MOCLDY    22  10  60 CALM      30.37R
NEW YORK CITY  CLEAR     33   9  36 MISG      30.49R
BALTIMORE      CLEAR     29  10  45 W3        30.54R
WASHINGTON DC  CLEAR     34   8  33 N6        30.56R WCI  29

$$



USA.gov is the U.S. government's official web portal to all federal, state and local government web resources and services.